Location: Franzen
(48.6167°N, 15.3833°E)
Time: 12:00:18
(UTC+00:00)

Exosat Rocket - Pass Details

Date: 22 April 2021
Orbit: 760 x 2515 km, 72.3° (Epoch: 16 May)

Event Time Altitude Azimuth Distance (km) Brightness Sun altitude
Rises 18:48:42 0° 332° (NNW) 4,080 8.3 -8.1°
Reaches altitude 10° 18:51:44 10° 330° (NNW) 2,892 7.5 -8.5°
Maximum altitude 18:58:01 63° 251° (WSW) 961 4.2 -9.4°
Drops below altitude 10° 19:03:01 10° 171° (S) 2,320 5.6 -10.1°
Enters shadow 19:04:36 - 168° (SSE) 2,953 6.1 -10.3°
